Tracking 28081 objects as of 27-Sep-2023
HD Live streaming from Space Station
objects crossing your sky now

NNSS 19 (TRANSIT 19)

Track NNSS 19 (TRANSIT 19) now!
10-day predictions
NNSS 19 (TRANSIT 19) is classified as:


NORAD ID: 4507
Int'l Code: 1970-067A
Perigee: 946.1 km
Apogee: 1,205.7 km
Inclination: 89.9 °
Period: 106.6 minutes
Semi major axis: 7446 km
RCS: 1.5637 m2 (large)
Launch date: August 27, 1970
Source: United States (US)
Launch site: AIR FORCE WESTERN TEST RANGE (AFWTR)
Your satellite tracking list
Your tracking list is empty




NASA's NSSDC Master Catalog

Two Line Element Set (TLE):
1 04507U 70067A   23269.90321224  .00000223  00000-0  29870-3 0  9997
2 04507  89.9489 236.3226 0174314 113.0490 248.9148 13.50954543613136
Source of the keplerian elements: AFSPC